Flight Track Log - Related Links

Times and Time Zones

All times are in EDT time to prevent confusion due to time zone crossing. See the RPA3392 flight status page for this flight to view local times or setup timezone preferences in your user account.

Time Position Orientation Groundspeed Altitude Reporting Facility
EDT Latitude Longitude Course Direction KTS MPH feet Rate Location/Type
22:30 38.8214 -77.0358 47° Northeast 152 175 1,600  Level Washington Center
22:31 38.7756 -77.0242 169° South 153 176 3,000 1,765 Climbing Washington Center
22:32 39.0446 -76.4886 63° Northeast  Level FlightAware Approximate
22:32 38.8033 -76.9583 62° Northeast 115 132 5,100  Level Washington Center
22:33 39.1167 -76.3078 90° East  Level FlightAware Approximate
22:33 38.8808 -76.9408 10° North 166 191 8,200  Level Washington Center
22:34 39.1596 -76.1209 83° East  Level FlightAware Approximate
22:34 38.9622 -76.9211 11° North 243 280 11,000  Level Washington Center
22:35 39.1810 -75.9184 81° East  Level FlightAware Approximate
22:35 39.0400 -76.8769 24° Northeast 272 313 12,700  Level Washington Center
22:36 39.2636 -75.7544 47° Northeast  Level FlightAware Approximate
22:36 39.0828 -76.7575 65° Northeast 304 350 14,300  Level Washington Center
22:37 39.0986 -76.6186 82° East 331 381 16,400 2,033 Climbing Washington Center
22:38 39.1144 -76.4797 82° East 354 407 18,400 1,800 Climbing Washington Center
22:39 39.1361 -76.3356 79° East 392 451 20,000 1,563 Climbing Washington Center
22:40 39.1558 -76.1883 80° East 411 473 21,500 1,412 Climbing Washington Center
22:41 39.1750 -76.0467 80° East 425 489 22,800 756 Climbing Washington Center
22:42 39.1986 -75.8889 79° East 433 498 23,000 555 Climbing Washington Center
22:43 39.2842 -75.7658 48° Northeast 429 494 23,900 984 Climbing Washington Center
22:44 39.3739 -75.6481 45° Northeast 434 499 25,000 550 Climbing Washington Center
22:45 39.4636 -75.5297 45° Northeast 446 513 25,000  Level Washington Center
22:46 39.5531 -75.4139 45° Northeast 446 513 25,000 570 Level Washington Center
22:48 39.7289 -75.1814 45° Northeast 456 525 26,700 944 Climbing New York Center
22:49 39.8236 -75.0389 49° Northeast 456 525 27,800 1,000 Climbing New York Center
22:50 39.9136 -74.9117 47° Northeast 463 533 28,700 600 Climbing New York Center
22:51 40.0056 -74.7897 45° Northeast 463 533 29,000 150 Climbing New York Center
22:52 40.1269 -74.7100 27° Northeast 469 540 29,000  Level New York Center
22:53 40.2619 -74.6631 15° North 476 548 29,000  Level New York Center
22:55 40.4750 -74.5900 15° North 504 580 29,000  Level Boston Center
22:56 40.6094 -74.5422 15° North 493 567 29,000  Level Boston Center
22:57 40.7436 -74.5000 13° North 493 567 29,000  Level Boston Center
22:58 40.8756 -74.4522 15° North 493 567 29,000 -541 Level Boston Center
22:59 41.0181 -74.4069 13° North 487 560 27,900 -1,350 Descending Boston Center
23:00 41.1397 -74.3694 13° North 482 555 26,300 -958 Descending Boston Center
23:01 41.2697 -74.3208 16° North 463 533 26,000 -149 Descending Boston Center
23:02 41.3933 -74.2775 15° North 452 520 26,000 -50 Level Boston Center
23:03 41.5128 -74.2364 14° North 447 514 25,900 -1,008 Descending Boston Center
23:04 41.6261 -74.2008 13° North 447 514 24,000 -2,017 Descending Boston Center
23:05 41.7350 -74.1622 15° North 433 498 21,900 -2,033 Descending Boston Center
23:06 41.8439 -74.1289 13° North 416 479 19,900 -2,129 Descending Boston Center
23:07 41.9150 -74.1000 17° North 393 452 18,600 -2,198 Descending Boston Center
23:08 42.0303 -74.0611 14° North 367 422 16,200 -2,063 Descending Boston Center
23:09 42.1267 -74.0272 15° North 358 412 14,200 -2,000 Descending Boston Center
23:10 42.2250 -73.9989 12° North 354 407 12,200 -1,721 Descending Boston Center
23:11 42.3208 -74.0014 359° North 351 404 10,700 -1,339 Descending Boston Center
23:12 42.4106 -74.0036 359° North 312 359 9,500 -1,300 Descending Boston Center
23:13 42.4897 -74.0056 359° North 279 321 8,100 -1,426 Descending Boston Center
23:14 42.5669 -74.0019 North 273 314 6,600 -1,694 Descending Boston Center
23:15 42.6464 -73.9814 11° North 278 320 4,600 -1,537 Descending Boston Center
23:16 42.7236 -73.9692 North 276 318 3,500 -559 Descending Boston Center
23:17 42.7886 -73.9425 17° North 230 265 3,500 -293 Level Boston Center
23:18 42.8331 -73.8839 44° Northeast 214 246 2,900 -780 Descending Boston Center
23:19 42.8194 -73.8158 105° East 182 209 1,900 -1,082 Descending Boston Center
23:20 42.7778 -73.8092 173° South 133 153 700 -1,161 Descending Boston Center

Login

Don't have an account? Register now (free) for customized features, flight alerts, and more!